{"data":{"norad_id":53833,"intl_designator":"2022-114R","name":"STARLINK-4771","alt_names":[],"object_type":"PAYLOAD","status":"ACTIVE","operator":null,"country":"US","launch_date":"2022-09-19","launch_site_code":"AFETR","launch_vehicle":null,"mission":null,"orbit_class":"UNKNOWN","rcs_meters":null,"size_class":null,"mass_kg":null,"dimensions":null,"purposes":["comms"],"wikipedia_slug":null,"has_3d_model":false,"image_url":null,"decayed_at":null,"tle_current":{"epoch":"2026-09-20T22:00:03.000096Z","epoch_age_seconds":48068,"freshness":"FRESH","line1":"1 53833U 22114R   26263.91670139  .00008297  00000+0  50629-3 0  9997","line2":"2 53833  53.1609 146.9060 0001977  45.1413  42.1956 15.11124750  5757","mean_motion":15.1112475,"eccentricity":0.0001977,"inclination_deg":53.1609,"raan_deg":146.906,"arg_perigee_deg":45.1413,"mean_anomaly_deg":42.1956,"bstar":0.00050629,"rev_number":575,"period_min":95.293257555341,"perigee_km":531.40233670176,"apogee_km":534.13490878499,"semimajor_km":6910.9056227434,"source":"CELESTRAK","updated_at":"2026-09-21T09:00:33.000389Z"}}}